Location: Bergfried
(49.6732°N, 11.7727°E)
Time: 02:49:35
(UTC+00:00)

Daily predictions for brighter satellites

Satellite Brightness Start Highest point End
(mag) Time Altitude Azimuth Time Altitude Azimuth Time Altitude Azimuth
Cosmos 2322 Rocket 4.2 01:36:40 23° NNE 01:36:40 23° NNE 01:38:42 10° NNE
USA 234 4.1 01:33:20 10° E 01:37:53 46° E 01:37:53 46° E
Cosmos 2360 Rocket 3.8 01:45:05 29° NE 01:45:05 29° NE 01:47:49 10° NNE
ATLAS 3B R/B 3.6 01:45:13 41° NNE 01:45:46 42° NNE 01:52:10 10° ESE
Cosmos 1980 Rocket 4.4 01:51:19 16° N 01:51:19 16° N 01:53:01 10° NNE
CENTAUR R/B 3.6 01:53:12 38° NNW 01:56:09 56° NE 02:04:32 10° ESE
ADEOS II 3.9 01:52:48 10° NNE 01:55:05 26° NNE 01:55:05 26° NNE
CZ-2D R/B 4.4 02:08:52 10° N 02:09:49 15° N 02:09:49 15° N
ATLAS 2AS CENTAUR R/B 3.9 02:11:47 33° SSE 02:14:23 42° ESE 02:21:47 10° NE
Cosmos 2278 Rocket 2.7 02:21:49 55° ENE 02:21:49 55° ENE 02:27:20 10° SE
IDEFIX/ARIANE 42P 3.9 02:22:43 10° NNE 02:27:33 36° E 02:29:24 28° SE
Cosmos 2333 Rocket 2.5 02:32:36 64° E 02:32:36 64° E 02:37:56 10° NNE
Cosmos 2251 Rocket 4.2 02:34:14 51° NNE 02:34:14 51° NNE 02:38:13 10° NNE
NOSS 3-2 (A) 3.9 02:40:40 67° SW 02:40:40 67° SW 02:48:53 10° SSE
Cosmos 2098 Rocket 4.3 02:41:30 65° WNW 02:41:30 65° WNW 02:48:28 10° N
COSMOS 2455 2.9 02:44:50 64° NNW 02:44:50 64° NNW 02:50:19 10° NNE
Cosmos 2333 4.3 02:45:13 65° N 02:45:13 65° N 02:50:08 10° NNE
USA 267 3.2 02:40:45 10° ENE 02:47:19 75° SE 02:48:26 61° SSW
SL-16 R/B 3.8 02:49:27 22° NNW 02:49:27 22° NNW 02:52:41 10° NNE
H-2A R/B 4.2 02:47:37 10° NE 02:51:21 31° E 02:53:50 18° SSE
Cosmos 2219 Rocket 2.0 02:52:52 89° ENE 02:52:52 89° ENE 02:58:29 10° NNE
Cosmos 2322 4.0 02:54:18 53° NNW 02:54:18 53° NNW 02:59:15 10° NNE
Aureole 1 Rocket 3.5 02:54:47 87° NE 02:54:47 87° NE 02:59:27 10° NNE
Cosmos 2237 Rocket 3.0 03:01:05 22° S 03:04:27 48° ESE 03:09:56 10° NE
NOSS 3-2 (C) 3.9 03:02:05 38° NW 03:05:16 69° SW 03:13:34 10° SSE
Cosmos 1709 Rocket 4.0 03:09:12 58° WSW 03:09:48 61° WNW 03:16:07 10° N
Resurs 1-4 Rocket 4.4 03:08:21 10° NNW 03:08:44 11° NNW 03:08:44 11° NNW
CBERS 1 LM4 rocket 4.3 03:09:04 10° NNE 03:14:10 73° WNW 03:14:24 72° W
Cosmos 1953 3.2 03:11:59 10° N 03:15:56 49° ENE 03:19:49 10° SSE
Cosmos 2369 Rocket 4.4 03:11:52 10° N 03:16:06 21° NE 03:20:17 10° E
Cosmos 2184 Rocket 4.3 03:10:30 10° S 03:16:39 68° E 03:22:55 10° NNE
Cosmos 2322 Rocket 3.9 03:18:30 19° NNW 03:18:30 19° NNW 03:22:03 10° N
NOSS 0 Rocket 4.0 03:16:32 29° SSW 03:19:52 75° ESE 03:26:05 10° NNE
ADEOS 3.5 03:15:22 10° NNE 03:20:38 89° WNW 03:23:07 33° SSW
ARIANE 5 R/B 4.1 03:16:43 10° N 03:18:54 20° NNW 03:18:54 20° NNW
Cosmos 2228 4.2 03:17:27 10° N 03:21:32 42° ENE 03:25:34 10° SSE
SL-24 R/B 4.4 03:17:31 10° NNE 03:21:48 86° ESE 03:22:21 66° S
Cosmos 1980 3.9 03:18:36 26° S 03:21:52 69° ESE 03:27:30 10° NNE
USA 234 3.2 03:16:25 10° SE 03:22:52 60° SW 03:25:14 39° W
COSMOS 2428 2.7 03:22:32 53° W 03:23:19 58° WNW 03:28:57 10° NNE
USA 32 4.0 03:19:41 13° S 03:24:21 87° E 03:29:38 10° N
NOSS 3-4 (A) 3.8 03:21:02 26° SSW 03:24:31 63° SE 03:30:51 10° NE
NOSS 3-4 (C) 3.8 03:21:03 25° SSW 03:24:36 62° SE 03:30:57 10° NE
NOSS 2-2 (D) 3.6 03:26:15 54° NNW 03:26:15 54° NNW 03:30:15 10° NE
Cosmos 1025 Rocket 3.0 03:26:26 61° NW 03:26:26 61° NW 03:30:15 10° N
PSLV R/B 3.3 03:22:28 10° N 03:26:43 76° WNW 03:26:53 74° W
Cosmos 2360 Rocket 3.4 03:26:52 26° NW 03:26:52 26° NW 03:31:27 10° NNE
MSX 3.9 03:22:46 10° NNE 03:28:33 77° ESE 03:34:16 10° S
Meteor 1-31 Rocket 4.1 03:28:02 10° NNE 03:31:38 38° E 03:35:11 10° SSE
Cosmos 1726 4.0 03:30:54 10° N 03:34:12 30° ENE 03:37:29 10° SE
Cosmos 1707 3.0 03:32:19 17° S 03:35:17 68° E 03:39:12 10° NNE
Meteor 1-4 Rocket 3.5 03:32:59 10° S 03:36:20 45° E 03:39:40 10° NNE
ATLAS 3B R/B 2.6 03:32:32 23° NW 03:36:49 64° SW 03:43:34 10° SSE
ADEOS II 3.7 03:33:28 10° N 03:36:00 19° NW 03:36:00 19° NW
Cosmos 1140 Rocket 3.9 03:34:07 10° S 03:39:13 62° ESE 03:44:19 10° NNE
Cosmos 614 Rocket 3.9 03:35:56 21° SSW 03:39:33 86° ESE 03:44:48 10° NNE
PAYLOAD A 3.9 03:39:16 10° NNE 03:44:08 83° ESE 03:49:08 10° SSW
BREEZE-M R/B 4.1 03:43:31 37° W 03:45:50 90° SSE 03:56:30 10° E
Spot 2 4.3 03:42:16 10° N 03:45:57 43° WNW 03:45:57 43° WNW
Cosmos 1943 Rocket 3.8 03:41:29 10° NNW 03:46:37 33° NE 03:51:44 10° ESE
Cosmos 2058 Rocket 4.0 03:42:35 10° N 03:46:53 49° ENE 03:51:12 10° SSE
CENTAUR R/B 3.2 03:40:27 15° NW 03:47:10 57° WSW 03:55:34 10° SSE
Cosmos 2074 Rocket 3.9 03:41:23 10° SSW 03:47:37 74° W 03:53:51 10° N
Cosmos 389 Rocket 2.2 03:47:28 40° SSW 03:48:35 85° WNW 03:52:04 10° N
RESURS DK-1 3.8 03:46:20 10° S 03:50:10 38° ESE 03:54:01 10° NE
Gblst 52 Del rocket 4.1 03:48:44 32° WNW 03:51:22 84° SSW 03:57:13 10° ESE
COSMOS 2441 4.3 03:48:27 10° N 03:53:22 73° WNW 03:58:14 10° SSW
Cosmos 1536 Rocket 4.3 03:54:15 31° WNW 03:54:15 31° WNW 03:57:44 10° N
SL-16 R/B 3.1 03:52:57 10° S 03:58:23 50° ESE 04:03:51 10° NE
Meteor 1-16 Rocket 4.0 03:53:28 10° NNW 03:58:49 89° E 04:04:11 10° S
NOSS 2-2 (C) 4.2 04:01:52 29° WNW 04:02:48 33° NNW 04:06:57 10° NNE
Cosmos 1356 3.3 04:00:46 10° NNW 04:04:15 85° WSW 04:07:42 10° S
CZ-4B R/B 3.8 04:00:42 10° NNE 04:04:41 88° ESE 04:08:50 10° SSW
ATLAS 2AS CENTAUR R/B 3.1 03:59:16 20° WSW 04:05:11 67° NW 04:13:11 10° NE
Cosmos 2278 Rocket 2.9 04:03:51 25° WNW 04:05:33 29° WSW 04:10:20 10° SSW
SKYMED 2 4.0 04:01:55 10° SSE 04:06:12 65° ENE 04:10:31 10° N
IDEFIX/ARIANE 42P 3.1 04:02:21 10° N 04:07:10 38° WNW 04:10:12 20° WSW
Cosmos 2297 3.6 04:02:02 10° NNW 04:07:48 78° WSW 04:13:31 10° SSE
Cosmos 44 4.4 04:09:42 20° SW 04:09:42 20° SW 04:12:08 10° SSW
Cosmos 1023 Rocket 4.4 04:07:51 10° SSW 04:13:01 72° WNW 04:18:10 10° NNE
Cosmos 1892 Rocket 3.6 04:08:45 10° S 04:13:11 82° E 04:17:36 10° NNE
ERBS 2.8 04:15:31 30° WNW 04:16:43 44° NNW 04:19:59 10° NE
Cosmos 2333 Rocket 3.2 04:14:38 22° W 04:17:01 29° NW 04:21:58 10° NNE
Cosmos 44 Rocket 3.1 04:16:15 11° NW 04:20:43 68° SW 04:25:21 10° SSE
CZ-2C R/B 2.5 04:15:40 10° N 04:20:48 60° WNW 04:25:51 10° SSW
Cosmos 1606 Rocket 3.9 04:18:21 10° NNW 04:22:25 41° W 04:26:27 10° SSW
GP-B 3.0 04:21:46 10° S 04:26:12 74° W 04:30:40 10° N
H-2A R/B 3.2 04:23:08 10° N 04:26:49 31° WNW 04:30:24 11° SW
Cosmos 1763 Rocket 4.0 04:21:39 10° NNW 04:26:50 62° ENE 04:31:53 10° SE
COBE Rocket 3.9 04:23:04 10° S 04:28:08 76° WSW 04:33:20 10° NNW
USA 267 3.5 04:23:52 10° ENE 04:30:15 57° NNW 04:35:47 14° W
Cosmos 676 Rocket 4.0 04:25:44 10° SSW 04:30:59 67° WNW 04:36:14 10° NNE
COSMOS 2455 4.2 04:28:00 15° WNW 04:31:20 23° NNW 04:36:03 10° NNE
Cosmos 2219 Rocket 3.5 04:34:37 15° W 04:37:35 22° NW 04:41:56 10° N
Meteor PRIRODA 3.7 04:33:57 10° N 04:37:39 58° WNW 04:41:19 10° SSW
Cosmos 1437 Rocket 2.6 04:34:04 10° SSW 04:37:51 77° WNW 04:41:40 10° N
Cosmos 2344 4.5 04:28:22 10° NW 04:37:58 77° SW 04:51:24 10° SSE
KORONAS-FOTON 4.0 04:34:57 10° S 04:38:41 73° E 04:42:30 10° NNE
Meteor 2-5 Rocket 4.0 04:33:20 10° S 04:39:09 81° E 04:45:06 10° NNE
Cosmos 407 Rocket 4.1 04:36:05 10° WSW 04:40:44 33° NW 04:45:23 10° N
Meteor 2-10 4.2 04:36:21 10° NNW 04:41:22 51° W 04:46:32 10° S
USA 116 3.3 04:38:12 10° SSE 04:41:54 82° WSW 04:45:15 10° NNW
Cosmos 1812 Rocket 4.4 04:38:05 10° N 04:42:31 55° ENE 04:46:53 10° SSE
PSLV R/B 3.7 04:39:39 10° N 04:43:19 59° WNW 04:46:57 10° SSW
BREEZE-M DEB (TANK) 4.0 04:47:04 11° WSW 04:48:01 13° SW 04:49:18 10° S
Cosmos 2237 Rocket 2.8 04:43:29 10° WSW 04:48:42 36° NW 04:53:58 10° NNE
Okean 1-7 Rocket 3.9 04:44:35 10° SSW 04:48:52 45° WNW 04:53:14 10° N
Cosmos 1626 Rocket 3.9 04:44:36 10° S 04:48:53 69° E 04:53:12 10° NNE
Cosmos 2218 Rocket 4.3 04:43:06 10° S 04:49:26 76° E 04:55:46 10° NNE
In-Cosmos 22 4.2 04:44:37 10° SSW 04:49:53 56° WNW 04:55:19 10° N
CZ-4B R/B 3.6 04:48:07 10° N 04:51:44 31° WNW 04:55:10 10° SW
Cosmos 1953 3.8 04:49:22 10° NW 04:51:56 17° W 04:54:29 10° SW
CZ-4B DEB 4.2 04:47:02 10° NNE 04:52:33 84° WNW 04:58:00 10° SSW
Cosmos 2154 Rocket 4.3 04:47:05 10° SW 04:52:55 42° WNW 04:58:48 10° N
COSMO-SKYMED 1 2.9 04:50:14 10° S 04:54:22 43° W 04:58:32 10° NNW
Cosmos 1908 3.4 04:52:07 10° NNW 04:55:49 46° W 04:59:30 10° SSW
Meteor 2-17 Rocket 4.4 04:51:10 10° SSW 04:57:13 71° WNW 05:03:17 10° N
Cosmos 2228 4.2 04:55:36 10° NW 04:58:48 21° W 05:01:59 10° SW
Cosmos 2369 Rocket 2.3 04:55:20 10° NNW 05:00:59 85° ENE 05:06:35 10° SSE
PAYLOAD B 4.2 04:57:31 10° NNE 05:03:07 78° WNW 05:08:38 10° SSW
Meteor 1-31 Rocket 4.0 05:02:56 10° NNW 05:05:51 21° WNW 05:08:44 10° WSW
BREEZE-M DEB (TANK) 1.4 05:04:17 10° W 05:07:45 86° SSW 05:09:54 10° E
Cosmos 1727 Rocket 4.1 05:01:38 10° N 05:07:54 88° E 05:14:11 10° S
COSMOS 2428 4.3 05:05:19 10° WNW 05:08:51 17° NNW 05:12:26 10° N
Cosmos 1726 3.3 05:06:25 10° NW 05:09:16 22° W 05:12:07 10° SW
Cosmos 1850 Rocket 4.0 05:04:08 10° SSW 05:09:19 77° WNW 05:14:32 10° NNE
CZ-4B R/B 3.2 05:04:14 10° NNE 05:09:34 88° WNW 05:14:52 10° SSW
